| time (UTC) | temp F | wind direction | speed MPH | gust MPH | rain 1hr in | rain 24hr in | rain mn in | humidity % | barometer mb |
| 20260905031830 | 84 | 228 | 0.0 | 0.0 | 0.00 | 0.00 | 0.00 | 79 | 1010.2 |
| 20260905031543 | 84 | 228 | 0.0 | 0.0 | 0.00 | 0.00 | 0.00 | 80 | 1010.1 |
| 20260905030809 | 84 | 228 | 0.0 | 0.0 | 0.00 | 0.00 | 0.00 | 80 | 1010.1 |
| 20260905030311 | 84 | 228 | 0.0 | 0.0 | 0.00 | 0.00 | 0.00 | 80 | 1010.1 |
| 20260905025806 | 84 | 228 | 0.0 | 0.0 | 0.00 | 0.00 | 0.00 | 80 | 1009.8 |
| 20260905025258 | 84 | 228 | 0.0 | 0.0 | 0.00 | 0.00 | 0.00 | 80 | 1009.8 |
| 20260905024754 | 84 | 227 | 0.0 | 0.0 | 0.00 | 0.00 | 0.00 | 80 | 1009.8 |
| 20260905024241 | 83 | 227 | 0.0 | 0.0 | 0.00 | 0.00 | 0.00 | 80 | 1009.8 |
| 20260905023740 | 83 | 227 | 0.0 | 0.0 | 0.00 | 0.00 | 0.00 | 80 | 1009.8 |
| 20260905023236 | 84 | 227 | 0.0 | 0.0 | 0.00 | 0.00 | 0.00 | 80 | 1009.8 |
| 20260905022953 | 84 | 227 | 0.0 | 0.0 | 0.00 | 0.00 | 0.00 | 80 | 1009.7 |
| 20260905022223 | 84 | 227 | 0.0 | 0.0 | 0.00 | 0.00 | 0.00 | 79 | 1009.7 |
| 20260905021938 | 84 | 227 | 0.0 | 0.0 | 0.00 | 0.00 | 0.00 | 79 | 1009.7 |
| 20260905021210 | 84 | 227 | 0.0 | 0.0 | 0.00 | 0.00 | 0.00 | 79 | 1009.7 |
| 20260905020922 | 84 | 227 | 0.0 | 0.0 | 0.00 | 0.00 | 0.00 | 78 | 1009.7 |
| 20260905020159 | 85 | 227 | 0.0 | 0.0 | 0.00 | 0.00 | 0.00 | 79 | 1009.7 |
| 20260905015654 | 85 | 227 | 0.0 | 0.0 | 0.00 | 0.00 | 0.00 | 78 | 1009.7 |
| 20260905015146 | 85 | 227 | 0.0 | 0.0 | 0.00 | 0.00 | 0.00 | 78 | 1009.7 |
| 20260905014854 | 85 | 227 | 0.0 | 0.0 | 0.00 | 0.00 | 0.00 | 79 | 1009.7 |
| 20260905014124 | 85 | 227 | 0.0 | 0.0 | 0.00 | 0.00 | 0.00 | 78 | 1009.3 |
| 20260905013627 | 85 | 227 | 0.0 | 0.0 | 0.00 | 0.00 | 0.00 | 78 | 1009.3 |
| 20260905013124 | 85 | 227 | 0.0 | 0.0 | 0.00 | 0.00 | 0.00 | 78 | 1009.3 |
| 20260905012625 | 85 | 227 | 0.0 | 0.0 | 0.00 | 0.00 | 0.00 | 78 | 1009.2 |
| 20260905012123 | 85 | 227 | 0.0 | 0.0 | 0.00 | 0.00 | 0.00 | 78 | 1009.2 |
| 20260905011850 | 85 | 227 | 0.0 | 0.0 | 0.00 | 0.00 | 0.00 | 78 | 1009.2 |
| 20260905011620 | 85 | 227 | 0.0 | 0.0 | 0.00 | 0.00 | 0.00 | 77 | 1008.7 |
| 20260905010625 | 86 | 227 | 0.0 | 0.0 | 0.00 | 0.00 | 0.00 | 77 | 1008.7 |
| 20260905010123 | 86 | 227 | 0.0 | 0.0 | 0.00 | 0.00 | 0.00 | 77 | 1008.7 |
| 20260905005619 | 86 | 227 | 0.0 | 0.0 | 0.00 | 0.00 | 0.00 | 77 | 1008.7 |
| 20260905005111 | 86 | 227 | 0.0 | 0.0 | 0.00 | 0.00 | 0.00 | 76 | 1008.7 |
| 20260905004606 | 87 | 227 | 0.0 | 0.0 | 0.00 | 0.00 | 0.00 | 76 | 1008.7 |
| 20260905004100 | 87 | 227 | 0.0 | 0.0 | 0.00 | 0.00 | 0.00 | 75 | 1009.0 |
| 20260905003553 | 87 | 226 | 0.0 | 0.0 | 0.00 | 0.00 | 0.00 | 75 | 1009.0 |
| 20260905003308 | 87 | 229 | 0.0 | 0.0 | 0.00 | 0.00 | 0.00 | 74 | 1009.0 |
| 20260905002537 | 88 | 217 | 0.0 | 0.0 | 0.00 | 0.00 | 0.00 | 73 | 1009.0 |
| 20260905002035 | 88 | 229 | 0.0 | 0.0 | 0.00 | 0.00 | 0.00 | 73 | 1009.0 |
| 20260905001757 | 89 | 229 | 0.0 | 0.0 | 0.00 | 0.00 | 0.00 | 73 | 1009.0 |
| 20260905001024 | 89 | 224 | 0.0 | 0.0 | 0.00 | 0.00 | 0.00 | 72 | 1009.0 |
| 20260905000517 | 89 | 225 | 1.0 | 4.0 | 0.00 | 0.00 | 0.00 | 72 | 1009.0 |
| 20260905000011 | 89 | 231 | 2.0 | 5.0 | 0.00 | 0.00 | 0.00 | 71 | 1009.0 |
| 20260904235506 | 89 | 231 | 2.0 | 5.0 | 0.00 | 0.00 | 0.00 | 71 | 1009.1 |
| 20260904235000 | 90 | 244 | 2.0 | 7.0 | 0.00 | 0.00 | 0.00 | 71 | 1009.1 |
| 20260904234455 | 90 | 232 | 1.0 | 7.0 | 0.00 | 0.00 | 0.00 | 70 | 1009.1 |
| 20260904233949 | 90 | 240 | 0.0 | 6.0 | 0.00 | 0.00 | 0.00 | 70 | 1009.1 |
| 20260904233700 | 90 | 243 | 2.0 | 8.0 | 0.00 | 0.00 | 0.00 | 70 | 1009.1 |
| 20260904232937 | 91 | 245 | 3.0 | 8.0 | 0.00 | 0.00 | 0.00 | 69 | 1009.1 |
| 20260904232425 | 91 | 213 | 4.0 | 8.0 | 0.00 | 0.00 | 0.00 | 69 | 1009.1 |
| 20260904232153 | 91 | 237 | 4.0 | 8.0 | 0.00 | 0.00 | 0.00 | 69 | 1009.1 |
| 20260904231417 | 91 | 262 | 2.0 | 8.0 | 0.00 | 0.00 | 0.00 | 68 | 1009.2 |
| 20260904230911 | 91 | 235 | 2.0 | 6.0 | 0.00 | 0.00 | 0.00 | 69 | 1009.2 |
| 20260904230630 | 91 | 256 | 3.0 | 7.0 | 0.00 | 0.00 | 0.00 | 69 | 1009.2 |
| 20260904225857 | 91 | 188 | 4.0 | 8.0 | 0.00 | 0.00 | 0.00 | 69 | 1009.1 |
| 20260904225355 | 91 | 254 | 4.0 | 8.0 | 0.00 | 0.00 | 0.00 | 69 | 1009.1 |
| 20260904224850 | 91 | 225 | 4.0 | 8.0 | 0.00 | 0.00 | 0.00 | 68 | 1009.1 |
| 20260904224341 | 91 | 238 | 4.0 | 9.0 | 0.00 | 0.00 | 0.00 | 68 | 1009.1 |
| 20260904223836 | 92 | 231 | 4.0 | 9.0 | 0.00 | 0.00 | 0.00 | 67 | 1009.1 |
| 20260904223329 | 92 | 244 | 5.0 | 9.0 | 0.00 | 0.00 | 0.00 | 68 | 1009.1 |
| 20260904222824 | 92 | 238 | 4.0 | 9.0 | 0.00 | 0.00 | 0.00 | 67 | 1008.9 |
| 20260904222325 | 92 | 222 | 4.0 | 10.0 | 0.00 | 0.00 | 0.00 | 67 | 1008.9 |
| 20260904221825 | 92 | 223 | 4.0 | 10.0 | 0.00 | 0.00 | 0.00 | 68 | 1008.9 |
| 20260904221324 | 91 | 238 | 4.0 | 10.0 | 0.00 | 0.00 | 0.00 | 67 | 1009.0 |
| 20260904220825 | 92 | 215 | 4.0 | 10.0 | 0.00 | 0.00 | 0.00 | 66 | 1009.0 |
| 20260904220326 | 92 | 207 | 4.0 | 9.0 | 0.00 | 0.00 | 0.00 | 65 | 1009.0 |
| 20260904215824 | 92 | 224 | 6.0 | 13.0 | 0.00 | 0.00 | 0.00 | 65 | 1008.8 |
| 20260904215325 | 92 | 233 | 6.0 | 13.0 | 0.00 | 0.00 | 0.00 | 64 | 1008.8 |
| 20260904215052 | 92 | 257 | 5.0 | 12.0 | 0.00 | 0.00 | 0.00 | 64 | 1008.8 |
| 20260904214325 | 92 | 231 | 4.0 | 12.0 | 0.00 | 0.00 | 0.00 | 64 | 1008.8 |
| 20260904213825 | 92 | 182 | 4.0 | 10.0 | 0.00 | 0.00 | 0.00 | 65 | 1008.8 |
| 20260904213328 | 93 | 220 | 4.0 | 10.0 | 0.00 | 0.00 | 0.00 | 64 | 1008.8 |
| 20260904213053 | 93 | 235 | 4.0 | 8.0 | 0.00 | 0.00 | 0.00 | 64 | 1009.0 |
| 20260904212325 | 93 | 196 | 4.0 | 9.0 | 0.00 | 0.00 | 0.00 | 64 | 1009.0 |
| 20260904211825 | 92 | 214 | 4.0 | 11.0 | 0.00 | 0.00 | 0.00 | 65 | 1009.0 |
| 20260904211326 | 93 | 254 | 3.0 | 11.0 | 0.00 | 0.00 | 0.00 | 64 | 1009.2 |
| 20260904210824 | 92 | 138 | 4.0 | 11.0 | 0.00 | 0.00 | 0.00 | 65 | 1009.2 |
| 20260904210806 | 92 | 199 | 4.0 | 11.0 | 0.00 | 0.00 | 0.00 | 65 | 1009.2 |
| 20260904205825 | 92 | 196 | 4.0 | 10.0 | 0.00 | 0.00 | 0.00 | 65 | 1009.5 |
| 20260904205324 | 92 | 229 | 4.0 | 10.0 | 0.00 | 0.00 | 0.00 | 65 | 1009.5 |
| 20260904204824 | 92 | 218 | 4.0 | 10.0 | 0.00 | 0.00 | 0.00 | 65 | 1009.5 |
| 20260904204322 | 92 | 217 | 4.0 | 12.0 | 0.00 | 0.00 | 0.00 | 65 | 1009.5 |
| 20260904203821 | 92 | 219 | 4.0 | 12.0 | 0.00 | 0.00 | 0.00 | 65 | 1009.5 |
| 20260904203316 | 92 | 192 | 4.0 | 10.0 | 0.00 | 0.00 | 0.00 | 65 | 1009.5 |
| 20260904202810 | 92 | 209 | 4.0 | 10.0 | 0.00 | 0.00 | 0.00 | 66 | 1009.7 |
| 20260904202306 | 92 | 182 | 4.0 | 7.0 | 0.00 | 0.00 | 0.00 | 65 | 1009.7 |
| 20260904201755 | 92 | 186 | 3.0 | 7.0 | 0.00 | 0.00 | 0.00 | 66 | 1009.7 |
| 20260904201250 | 92 | 188 | 3.0 | 9.0 | 0.00 | 0.00 | 0.00 | 66 | 1009.8 |
| 20260904201226 | 92 | 234 | 2.0 | 9.0 | 0.00 | 0.00 | 0.00 | 65 | 1009.8 |
| 20260904200507 | 92 | 227 | 3.0 | 10.0 | 0.00 | 0.00 | 0.00 | 66 | 1009.8 |
| 20260904195733 | 92 | 152 | 2.0 | 10.0 | 0.00 | 0.00 | 0.00 | 66 | 1010.0 |
| 20260904195222 | 92 | 217 | 2.0 | 9.0 | 0.00 | 0.00 | 0.00 | 65 | 1010.0 |
| 20260904194720 | 92 | 181 | 1.0 | 9.0 | 0.00 | 0.00 | 0.00 | 65 | 1010.0 |
| 20260904194216 | 92 | 246 | 1.0 | 8.0 | 0.00 | 0.00 | 0.00 | 65 | 1010.3 |
| 20260904193710 | 92 | 233 | 1.0 | 6.0 | 0.00 | 0.00 | 0.00 | 65 | 1010.3 |
| 20260904193203 | 91 | 146 | 0.0 | 3.0 | 0.00 | 0.00 | 0.00 | 65 | 1010.3 |
| 20260904192652 | 91 | 172 | 1.0 | 7.0 | 0.00 | 0.00 | 0.00 | 66 | 1010.5 |
| 20260904192417 | 90 | 155 | 2.0 | 8.0 | 0.00 | 0.00 | 0.00 | 66 | 1010.5 |
| 20260904191645 | 90 | 111 | 2.0 | 8.0 | 0.00 | 0.00 | 0.00 | 65 | 1010.5 |
| 20260904191138 | 90 | 165 | 2.0 | 8.0 | 0.00 | 0.00 | 0.00 | 68 | 1010.8 |
| 20260904190632 | 89 | 109 | 1.0 | 8.0 | 0.00 | 0.00 | 0.00 | 68 | 1010.8 |
| 20260904190126 | 89 | 204 | 3.0 | 9.0 | 0.00 | 0.00 | 0.00 | 69 | 1010.8 |
| 20260904185620 | 89 | 92 | 2.0 | 9.0 | 0.00 | 0.00 | 0.00 | 68 | 1011.0 |
| 20260904185331 | 88 | 162 | 1.0 | 6.0 | 0.00 | 0.00 | 0.00 | 70 | 1011.0 |
| 20260904184609 | 88 | 116 | 2.0 | 10.0 | 0.00 | 0.00 | 0.00 | 70 | 1011.0 |
| 20260904184104 | 87 | 90 | 4.0 | 11.0 | 0.00 | 0.00 | 0.00 | 70 | 1011.4 |
| 20260904183557 | 87 | 106 | 4.0 | 11.0 | 0.00 | 0.00 | 0.00 | 71 | 1011.4 |
| 20260904183051 | 86 | 106 | 4.0 | 9.0 | 0.00 | 0.00 | 0.00 | 73 | 1011.4 |
| 20260904182541 | 86 | 92 | 4.0 | 11.0 | 0.00 | 0.00 | 0.00 | 72 | 1011.6 |
| 20260904182039 | 86 | 342 | 4.0 | 11.0 | 0.00 | 0.00 | 0.00 | 72 | 1011.6 |
| 20260904181757 | 86 | 77 | 4.0 | 12.0 | 0.00 | 0.00 | 0.00 | 75 | 1011.6 |
| 20260904181026 | 86 | 136 | 5.0 | 12.0 | 0.00 | 0.00 | 0.00 | 73 | 1011.9 |
| 20260904180519 | 86 | 86 | 5.0 | 10.0 | 0.00 | 0.00 | 0.00 | 74 | 1011.9 |
| 20260904180500 | 85 | 150 | 4.0 | 10.0 | 0.00 | 0.00 | 0.00 | 74 | 1011.9 |
| 20260904175510 | 85 | 97 | 3.0 | 10.0 | 0.00 | 0.00 | 0.00 | 76 | 1012.4 |
| 20260904174958 | 84 | 141 | 4.0 | 12.0 | 0.00 | 0.00 | 0.00 | 78 | 1012.4 |
| 20260904174455 | 84 | 79 | 6.0 | 13.0 | 0.00 | 0.00 | 0.00 | 78 | 1012.4 |
| 20260904173950 | 84 | 80 | 6.0 | 13.0 | 0.00 | 0.00 | 0.00 | 77 | 1012.4 |
| 20260904173444 | 84 | 52 | 6.0 | 13.0 | 0.00 | 0.00 | 0.00 | 78 | 1012.4 |
| 20260904172939 | 84 | 333 | 6.0 | 15.0 | 0.00 | 0.00 | 0.00 | 77 | 1012.4 |
| 20260904172429 | 85 | 22 | 7.0 | 15.0 | 0.00 | 0.00 | 0.00 | 76 | 1012.4 |
| 20260904172150 | 85 | 67 | 7.0 | 15.0 | 0.00 | 0.00 | 0.00 | 75 | 1012.4 |
| 20260904171409 | 85 | 15 | 6.0 | 16.0 | 0.00 | 0.00 | 0.00 | 74 | 1012.7 |
| 20260904170904 | 85 | 39 | 6.0 | 16.0 | 0.00 | 0.00 | 0.00 | 74 | 1012.7 |
| 20260904170405 | 85 | 32 | 7.0 | 15.0 | 0.00 | 0.00 | 0.00 | 74 | 1012.7 |
| 20260904165904 | 86 | 91 | 6.0 | 14.0 | 0.00 | 0.00 | 0.00 | 73 | 1012.5 |
| 20260904165401 | 86 | 63 | 6.0 | 13.0 | 0.00 | 0.00 | 0.00 | 75 | 1012.5 |
| 20260904165344 | 86 | 22 | 7.0 | 14.0 | 0.00 | 0.00 | 0.00 | 74 | 1012.5 |
| 20260904164401 | 86 | 67 | 6.0 | 14.0 | 0.00 | 0.00 | 0.00 | 73 | 1012.4 |
| 20260904163903 | 86 | 82 | 6.0 | 12.0 | 0.00 | 0.00 | 0.00 | 73 | 1012.4 |
| 20260904163404 | 86 | 55 | 6.0 | 13.0 | 0.00 | 0.00 | 0.00 | 73 | 1012.4 |
| 20260904163123 | 87 | 43 | 5.0 | 13.0 | 0.00 | 0.00 | 0.00 | 73 | 1012.2 |
| 20260904162400 | 87 | 35 | 4.0 | 10.0 | 0.00 | 0.00 | 0.00 | 72 | 1012.2 |
| 20260904161856 | 87 | 24 | 5.0 | 16.0 | 0.00 | 0.00 | 0.00 | 73 | 1012.2 |
| 20260904161348 | 87 | 31 | 5.0 | 16.0 | 0.00 | 0.00 | 0.00 | 71 | 1011.9 |
| 20260904160842 | 88 | 41 | 2.0 | 10.0 | 0.00 | 0.00 | 0.00 | 68 | 1011.9 |
| 20260904160336 | 88 | 65 | 2.0 | 6.0 | 0.00 | 0.00 | 0.00 | 67 | 1011.9 |
| 20260904155831 | 88 | 349 | 2.0 | 7.0 | 0.00 | 0.00 | 0.00 | 67 | 1011.9 |
| 20260904155542 | 88 | 311 | 2.0 | 7.0 | 0.00 | 0.00 | 0.00 | 68 | 1011.9 |
| 20260904154820 | 87 | 88 | 2.0 | 9.0 | 0.00 | 0.00 | 0.00 | 70 | 1011.9 |
| 20260904154312 | 87 | 54 | 3.0 | 9.0 | 0.00 | 0.00 | 0.00 | 70 | 1011.7 |
| 20260904154026 | 87 | 51 | 3.0 | 9.0 | 0.00 | 0.00 | 0.00 | 70 | 1011.7 |
| 20260904153301 | 87 | 9 | 3.0 | 8.0 | 0.00 | 0.00 | 0.00 | 71 | 1011.7 |
| 20260904152756 | 87 | 350 | 3.0 | 8.0 | 0.00 | 0.00 | 0.00 | 70 | 1011.5 |
| 20260904152249 | 87 | 46 | 2.0 | 6.0 | 0.00 | 0.00 | 0.00 | 70 | 1011.5 |
| 20260904151739 | 86 | 23 | 3.0 | 7.0 | 0.00 | 0.00 | 0.00 | 71 | 1011.5 |
| 20260904151453 | 86 | 342 | 2.0 | 7.0 | 0.00 | 0.00 | 0.00 | 71 | 1011.4 |
| 20260904150730 | 86 | 348 | 2.0 | 5.0 | 0.00 | 0.00 | 0.00 | 71 | 1011.4 |
| 20260904150226 | 86 | 316 | 1.0 | 5.0 | 0.00 | 0.00 | 0.00 | 72 | 1011.4 |
| 20260904145719 | 86 | 32 | 1.0 | 4.0 | 0.00 | 0.00 | 0.00 | 72 | 1011.5 |
| 20260904145206 | 85 | 301 | 2.0 | 6.0 | 0.00 | 0.00 | 0.00 | 73 | 1011.5 |
| 20260904144925 | 85 | 342 | 3.0 | 9.0 | 0.00 | 0.00 | 0.00 | 73 | 1011.5 |
| 20260904144201 | 85 | 5 | 3.0 | 9.0 | 0.00 | 0.00 | 0.00 | 74 | 1011.3 |
| 20260904143655 | 84 | 325 | 2.0 | 6.0 | 0.00 | 0.00 | 0.00 | 74 | 1011.3 |
| 20260904143155 | 83 | 250 | 3.0 | 7.0 | 0.00 | 0.00 | 0.00 | 75 | 1011.3 |
| 20260904142914 | 83 | 242 | 4.0 | 11.0 | 0.00 | 0.00 | 0.00 | 75 | 1011.2 |
| 20260904142150 | 83 | 265 | 4.0 | 11.0 | 0.00 | 0.00 | 0.00 | 75 | 1011.2 |
| 20260904141649 | 83 | 217 | 3.0 | 7.0 | 0.00 | 0.00 | 0.00 | 75 | 1011.2 |
| 20260904141149 | 83 | 287 | 2.0 | 7.0 | 0.00 | 0.00 | 0.00 | 75 | 1011.2 |
| 20260904140649 | 82 | 237 | 2.0 | 5.0 | 0.00 | 0.00 | 0.00 | 77 | 1011.2 |
| 20260904140413 | 82 | 229 | 2.0 | 5.0 | 0.00 | 0.00 | 0.00 | 77 | 1011.2 |
| 20260904135646 | 81 | 229 | 2.0 | 5.0 | 0.00 | 0.00 | 0.00 | 78 | 1011.2 |
| 20260904135144 | 81 | 248 | 2.0 | 5.0 | 0.00 | 0.00 | 0.00 | 79 | 1011.2 |
| 20260904134905 | 80 | 227 | 2.0 | 4.0 | 0.00 | 0.00 | 0.00 | 81 | 1011.2 |
| 20260904134409 | 80 | 221 | 1.0 | 4.0 | 0.00 | 0.00 | 0.00 | 80 | 1011.3 |
| 20260904133645 | 80 | 223 | 1.0 | 4.0 | 0.00 | 0.00 | 0.00 | 81 | 1011.3 |
| 20260904133144 | 79 | 213 | 0.0 | 3.0 | 0.00 | 0.00 | 0.00 | 81 | 1011.3 |
| 20260904132645 | 79 | 140 | 0.0 | 1.0 | 0.00 | 0.00 | 0.00 | 83 | 1011.3 |
| 20260904132145 | 78 | 140 | 0.0 | 1.0 | 0.00 | 0.00 | 0.00 | 83 | 1011.3 |
| 20260904131643 | 78 | 139 | 0.0 | 0.0 | 0.00 | 0.00 | 0.00 | 84 | 1011.3 |
| 20260904131144 | 78 | 177 | 0.0 | 0.0 | 0.00 | 0.00 | 0.00 | 84 | 1010.9 |
| 20260904130637 | 77 | 180 | 0.0 | 0.0 | 0.00 | 0.00 | 0.00 | 85 | 1010.9 |
| 20260904130127 | 77 | 219 | 0.0 | 3.0 | 0.00 | 0.00 | 0.00 | 85 | 1010.9 |
| 20260904125627 | 77 | 221 | 1.0 | 4.0 | 0.00 | 0.00 | 0.00 | 85 | 1010.5 |
| 20260904125128 | 77 | 221 | 1.0 | 4.0 | 0.00 | 0.00 | 0.00 | 86 | 1010.5 |
| 20260904124626 | 76 | 212 | 2.0 | 4.0 | 0.00 | 0.00 | 0.00 | 86 | 1010.5 |
| 20260904124126 | 76 | 227 | 2.0 | 5.0 | 0.00 | 0.00 | 0.00 | 86 | 1010.2 |
| 20260904123631 | 76 | 223 | 2.0 | 5.0 | 0.00 | 0.00 | 0.00 | 87 | 1010.2 |
| 20260904123127 | 76 | 229 | 2.0 | 5.0 | 0.00 | 0.00 | 0.00 | 87 | 1010.2 |
| 20260904122626 | 75 | 230 | 1.0 | 3.0 | 0.00 | 0.00 | 0.00 | 87 | 1010.0 |
| 20260904122127 | 75 | 213 | 0.0 | 2.0 | 0.00 | 0.00 | 0.00 | 88 | 1010.0 |
| 20260904121621 | 75 | 212 | 0.0 | 2.0 | 0.00 | 0.00 | 0.00 | 88 | 1010.0 |
| 20260904121116 | 75 | 213 | 0.0 | 2.0 | 0.00 | 0.00 | 0.00 | 88 | 1009.8 |
| 20260904120609 | 75 | 213 | 0.0 | 2.0 | 0.00 | 0.00 | 0.00 | 88 | 1009.8 |
| 20260904120104 | 75 | 215 | 0.0 | 1.0 | 0.00 | 0.00 | 0.00 | 88 | 1009.8 |
| 20260904115553 | 75 | 215 | 0.0 | 2.0 | 0.00 | 0.00 | 0.00 | 88 | 1009.7 |
| 20260904115317 | 75 | 215 | 1.0 | 2.0 | 0.00 | 0.00 | 0.00 | 88 | 1009.7 |
| 20260904114545 | 75 | 193 | 0.0 | 2.0 | 0.00 | 0.00 | 0.00 | 87 | 1009.7 |
| 20260904114040 | 75 | 180 | 0.0 | 2.0 | 0.00 | 0.00 | 0.00 | 87 | 1009.6 |
| 20260904113533 | 75 | 219 | 1.0 | 2.0 | 0.00 | 0.00 | 0.00 | 87 | 1009.6 |
| 20260904113026 | 75 | 219 | 1.0 | 4.0 | 0.00 | 0.00 | 0.00 | 87 | 1009.6 |
| 20260904113008 | 75 | 211 | 2.0 | 6.0 | 0.00 | 0.00 | 0.00 | 87 | 1009.2 |
| 20260904112011 | 75 | 214 | 3.0 | 6.0 | 0.00 | 0.00 | 0.00 | 87 | 1009.2 |
| 20260904111509 | 75 | 220 | 3.0 | 6.0 | 0.00 | 0.00 | 0.00 | 87 | 1009.2 |
| 20260904111004 | 75 | 215 | 3.0 | 7.0 | 0.00 | 0.00 | 0.00 | 87 | 1009.2 |
| 20260904110458 | 75 | 218 | 4.0 | 7.0 | 0.00 | 0.00 | 0.00 | 87 | 1009.2 |
| 20260904105951 | 75 | 235 | 4.0 | 8.0 | 0.00 | 0.00 | 0.00 | 87 | 1009.2 |
| 20260904105441 | 75 | 208 | 4.0 | 8.0 | 0.00 | 0.00 | 0.00 | 87 | 1009.2 |
| 20260904104938 | 75 | 191 | 4.0 | 8.0 | 0.00 | 0.00 | 0.00 | 87 | 1009.2 |
| 20260904104433 | 75 | 239 | 4.0 | 8.0 | 0.00 | 0.00 | 0.00 | 87 | 1009.2 |
| 20260904103926 | 75 | 247 | 4.0 | 8.0 | 0.00 | 0.00 | 0.00 | 87 | 1009.2 |
| 20260904103421 | 75 | 229 | 4.0 | 8.0 | 0.00 | 0.00 | 0.00 | 87 | 1009.2 |
| 20260904102910 | 75 | 201 | 4.0 | 8.0 | 0.00 | 0.00 | 0.00 | 88 | 1009.5 |
| 20260904102409 | 75 | 200 | 3.0 | 8.0 | 0.00 | 0.00 | 0.00 | 88 | 1009.5 |
| 20260904101902 | 75 | 210 | 3.0 | 8.0 | 0.00 | 0.00 | 0.00 | 88 | 1009.5 |
| 20260904101840 | 76 | 225 | 2.0 | 6.0 | 0.00 | 0.00 | 0.00 | 88 | 1009.7 |
| 20260904101113 | 76 | 213 | 2.0 | 6.0 | 0.00 | 0.00 | 0.00 | 87 | 1009.7 |
| 20260904100610 | 76 | 209 | 2.0 | 5.0 | 0.00 | 0.00 | 0.00 | 87 | 1009.7 |
| 20260904095550 | 76 | 234 | 2.0 | 4.0 | 0.00 | 0.00 | 0.00 | 87 | 1009.7 |
| 20260904094826 | 76 | 194 | 1.0 | 4.0 | 0.00 | 0.00 | 0.00 | 87 | 1009.7 |
| 20260904094320 | 76 | 215 | 2.0 | 4.0 | 0.00 | 0.00 | 0.00 | 87 | 1009.8 |
| 20260904093814 | 76 | 217 | 1.0 | 3.0 | 0.00 | 0.00 | 0.00 | 87 | 1009.8 |
| 20260904093309 | 76 | 209 | 1.0 | 3.0 | 0.00 | 0.00 | 0.00 | 87 | 1009.8 |
| 20260904092858 | 76 | 209 | 0.0 | 2.0 | 0.00 | 0.00 | 0.00 | 86 | 1010.1 |
| 20260904091803 | 76 | 217 | 1.0 | 3.0 | 0.00 | 0.00 | 0.00 | 87 | 1010.1 |
| 20260904091304 | 76 | 200 | 1.0 | 4.0 | 0.00 | 0.00 | 0.00 | 86 | 1010.1 |
| 20260904091023 | 76 | 196 | 2.0 | 4.0 | 0.00 | 0.00 | 0.00 | 86 | 1010.1 |
| 20260904090303 | 76 | 201 | 2.0 | 4.0 | 0.00 | 0.00 | 0.00 | 86 | 1010.1 |
| 20260904085801 | 77 | 219 | 2.0 | 4.0 | 0.00 | 0.00 | 0.00 | 86 | 1010.1 |
| 20260904085530 | 77 | 230 | 2.0 | 4.0 | 0.00 | 0.00 | 0.00 | 86 | 1010.1 |
| 20260904084800 | 77 | 227 | 2.0 | 4.0 | 0.00 | 0.00 | 0.00 | 86 | 1010.1 |
| 20260904084259 | 77 | 225 | 1.0 | 4.0 | 0.00 | 0.00 | 0.00 | 86 | 1009.8 |
| 20260904084022 | 77 | 216 | 1.0 | 4.0 | 0.00 | 0.00 | 0.00 | 86 | 1009.8 |
| 20260904083302 | 77 | 223 | 1.0 | 4.0 | 0.00 | 0.00 | 0.00 | 86 | 1009.8 |
| 20260904082758 | 77 | 232 | 1.0 | 5.0 | 0.00 | 0.00 | 0.00 | 86 | 1009.5 |
| 20260904082244 | 77 | 221 | 2.0 | 5.0 | 0.00 | 0.00 | 0.00 | 86 | 1009.5 |
| 20260904081951 | 77 | 219 | 2.0 | 6.0 | 0.00 | 0.00 | 0.00 | 86 | 1009.5 |
| 20260904081221 | 77 | 217 | 3.0 | 6.0 | 0.00 | 0.00 | 0.00 | 86 | 1009.3 |
| 20260904081154 | 77 | 225 | 2.0 | 6.0 | 0.00 | 0.00 | 0.00 | 86 | 1009.3 |
| 20260904080158 | 77 | 234 | 2.0 | 6.0 | 0.00 | 0.00 | 0.00 | 86 | 1009.3 |
| 20260904075644 | 77 | 154 | 2.0 | 5.0 | 0.00 | 0.00 | 0.00 | 86 | 1009.2 |
| 20260904075401 | 77 | 217 | 2.0 | 5.0 | 0.00 | 0.00 | 0.00 | 86 | 1009.2 |
| 20260904074636 | 78 | 210 | 3.0 | 5.0 | 0.00 | 0.00 | 0.00 | 86 | 1009.2 |
| 20260904074131 | 78 | 174 | 3.0 | 8.0 | 0.00 | 0.00 | 0.00 | 86 | 1009.3 |
| 20260904073621 | 78 | 227 | 3.0 | 6.0 | 0.00 | 0.00 | 0.00 | 86 | 1009.3 |
| 20260904073338 | 78 | 231 | 3.0 | 6.0 | 0.00 | 0.00 | 0.00 | 86 | 1009.3 |
| 20260904072612 | 78 | 214 | 3.0 | 6.0 | 0.00 | 0.00 | 0.00 | 86 | 1009.4 |
| 20260904072106 | 78 | 218 | 3.0 | 6.0 | 0.00 | 0.00 | 0.00 | 86 | 1009.4 |
| 20260904071828 | 79 | 220 | 3.0 | 6.0 | 0.00 | 0.00 | 0.00 | 85 | 1009.4 |
| 20260904071055 | 79 | 205 | 2.0 | 5.0 | 0.00 | 0.00 | 0.00 | 85 | 1009.7 |
| 20260904070545 | 79 | 213 | 3.0 | 5.0 | 0.00 | 0.00 | 0.00 | 85 | 1009.7 |
| 20260904070039 | 79 | 238 | 3.0 | 6.0 | 0.00 | 0.00 | 0.00 | 85 | 1009.7 |
| 20260904065528 | 79 | 211 | 3.0 | 6.0 | 0.00 | 0.00 | 0.00 | 84 | 1009.9 |
| 20260904065026 | 80 | 231 | 3.0 | 7.0 | 0.00 | 0.00 | 0.00 | 84 | 1009.9 |
| 20260904064519 | 80 | 234 | 2.0 | 7.0 | 0.00 | 0.00 | 0.00 | 84 | 1009.9 |
| 20260904064014 | 80 | 182 | 3.0 | 5.0 | 0.00 | 0.00 | 0.00 | 84 | 1010.2 |
| 20260904063509 | 80 | 238 | 3.0 | 5.0 | 0.00 | 0.00 | 0.00 | 84 | 1010.2 |
| 20260904062957 | 80 | 168 | 2.0 | 7.0 | 0.00 | 0.00 | 0.00 | 84 | 1010.2 |
| 20260904062457 | 80 | 150 | 2.0 | 7.0 | 0.00 | 0.00 | 0.00 | 84 | 1010.3 |
| 20260904062211 | 80 | 160 | 1.0 | 4.0 | 0.00 | 0.00 | 0.00 | 84 | 1010.3 |
| 20260904061705 | 80 | 177 | 0.0 | 4.0 | 0.00 | 0.00 | 0.00 | 84 | 1010.3 |
| 20260904060937 | 80 | 184 | 1.0 | 5.0 | 0.00 | 0.00 | 0.00 | 84 | 1010.3 |
| 20260904060427 | 80 | 190 | 1.0 | 5.0 | 0.00 | 0.00 | 0.00 | 84 | 1010.3 |
| 20260904055927 | 80 | 198 | 1.0 | 3.0 | 0.00 | 0.00 | 0.00 | 84 | 1010.5 |
| 20260904055420 | 80 | 197 | 1.0 | 4.0 | 0.00 | 0.00 | 0.00 | 84 | 1010.5 |
| 20260904054914 | 80 | 196 | 1.0 | 4.0 | 0.00 | 0.00 | 0.00 | 84 | 1010.5 |
| 20260904054408 | 80 | 202 | 0.0 | 0.0 | 0.00 | 0.00 | 0.00 | 84 | 1010.3 |
| 20260904053901 | 80 | 192 | 0.0 | 0.0 | 0.00 | 0.00 | 0.00 | 84 | 1010.3 |
| 20260904053358 | 80 | 191 | 0.0 | 0.0 | 0.00 | 0.00 | 0.00 | 84 | 1010.3 |
| 20260904052857 | 80 | 190 | 0.0 | 4.0 | 0.00 | 0.00 | 0.00 | 84 | 1010.2 |
| 20260904052354 | 80 | 189 | 1.0 | 4.0 | 0.00 | 0.00 | 0.00 | 84 | 1010.2 |
| 20260904051853 | 80 | 181 | 1.0 | 3.0 | 0.00 | 0.00 | 0.00 | 84 | 1010.2 |
| 20260904051350 | 80 | 198 | 1.0 | 3.0 | 0.00 | 0.00 | 0.00 | 84 | 1010.3 |
| 20260904050849 | 80 | 192 | 1.0 | 3.0 | 0.00 | 0.00 | 0.00 | 84 | 1010.3 |
| 20260904050607 | 80 | 253 | 0.0 | 4.0 | 0.00 | 0.00 | 0.00 | 85 | 1010.3 |
| 20260904045846 | 80 | 146 | 0.0 | 4.0 | 0.00 | 0.00 | 0.00 | 85 | 1010.3 |
| 20260904045345 | 80 | 171 | 0.0 | 3.0 | 0.00 | 0.00 | 0.00 | 85 | 1010.3 |
| 20260904044843 | 80 | 172 | 0.0 | 3.0 | 0.00 | 0.00 | 0.00 | 85 | 1010.3 |
| 20260904044342 | 80 | 195 | 0.0 | 0.0 | 0.00 | 0.00 | 0.00 | 84 | 1010.4 |
| 20260904044101 | 80 | 173 | 0.0 | 0.0 | 0.00 | 0.00 | 0.00 | 84 | 1010.4 |
| 20260904043337 | 80 | 171 | 0.0 | 0.0 | 0.00 | 0.00 | 0.00 | 84 | 1010.4 |
| 20260904043101 | 80 | 148 | 0.0 | 0.0 | 0.00 | 0.00 | 0.00 | 84 | 1010.4 |
| 20260904042554 | 80 | 155 | 0.0 | 0.0 | 0.00 | 0.00 | 0.00 | 84 | 1010.4 |
| 20260904042311 | 80 | 129 | 0.0 | 0.0 | 0.00 | 0.00 | 0.00 | 84 | 1010.4 |
| 20260904041331 | 81 | 128 | 0.0 | 0.0 | 0.00 | 0.00 | 0.00 | 83 | 1010.4 |
| 20260904040832 | 81 | 128 | 0.0 | 0.0 | 0.00 | 0.00 | 0.00 | 83 | 1010.4 |
| 20260904040551 | 81 | 146 | 0.0 | 0.0 | 0.00 | 0.00 | 0.00 | 83 | 1010.4 |
| 20260904040055 | 81 | 142 | 0.0 | 0.0 | 0.00 | 0.00 | 0.00 | 82 | 1010.5 |
| 20260904035828 | 81 | 146 | 0.0 | 0.0 | 0.00 | 0.00 | 0.00 | 82 | 1010.5 |
| 20260904034831 | 81 | 148 | 0.0 | 0.0 | 0.00 | 0.00 | 0.00 | 82 | 1010.5 |
| 20260904034329 | 81 | 175 | 0.0 | 0.0 | 0.00 | 0.00 | 0.00 | 82 | 1010.5 |
| 20260904033832 | 81 | 175 | 0.0 | 0.0 | 0.00 | 0.00 | 0.00 | 82 | 1010.5 |
| 20260904033813 | 82 | 175 | 0.0 | 0.0 | 0.00 | 0.00 | 0.00 | 81 | 1010.5 |
| 20260904032812 | 82 | 175 | 0.0 | 0.0 | 0.00 | 0.00 | 0.00 | 81 | 1010.7 |